Chadron, NE

10:23 PM MST on January 19, 2018 (GMT -0700)
Chadron Municipal

Weather History for KCDR - January, 2013

Change the Weather History Date:

Monday, January 7, 2013

  Actual Average Record
Temperature  
Mean Temperature 31 °F 24 °F  
Max Temperature 44 °F 39 °F 66 °F (1923)
Min Temperature 17 °F 10 °F -24 °F (1968)
Degree Days  
Heating Degree Days 34 41  
Month to date heating degree days 300 287  
Since 1 July heating degree days 3011 3229  
Cooling Degree Days 0 0  
Month to date cooling degree days 0 0  
Year to date cooling degree days 0 0  
Moisture  
Dew Point 19 °F    
Average Humidity 61    
Maximum Humidity 81    
Minimum Humidity 41    
Precipitation  
Precipitation 0.00 in 0.01 in 0.10 in (1975)
Month to date precipitation T 0.08  
Year to date precipitation T 0.08  
Sea Level Pressure  
Sea Level Pressure 29.98 in    
Wind  
Wind Speed 5 mph (SW)    
Max Wind Speed 16 mph    
Max Gust Speed 18 mph    
Visibility 10 miles    
Events      
T = Trace of Precipitation, MM = Missing Value Source: NWS Daily Summary

Daily Weather History Graph

Daily Weather History Graph

Search for Another Location

Airport or City:

Trip Planner

Search our weather history database for the weather conditions in past years. The results will help you decide how hot, cold, wet, or windy it might be!

Date:

Astronomy

Jan. 07, 2013 Rise Set
Actual Time 7:22 AM MST 4:35 PM MST
Civil Twilight 6:51 AM MST 5:06 PM MST
Nautical Twilight 6:15 AM MST 5:42 PM MST
Astronomical Twilight 5:41 AM MST 6:16 PM MST
Moon 2:47 AM MST (1/7) 12:49 PM MST (1/7)
Length of Visible Light 10h 15m
Length of Day
9h 12m
Waning Crescent, 22% of the Moon is Illuminated
Jan 7
Waning Crescent
Jan 11
New
Jan 18
First Quarter
Jan 26
Full
Feb 3
Last Quarter

Hourly Weather History & Observations

Time (MST) Temp. Windchill Dew Point Humidity Pressure Visibility Wind Dir Wind Speed Gust Speed Precip Events Conditions
12:53 AM 27.0 °F 18.0 °F 19.0 °F 72% 29.97 in 10.0 mi WSW 9.2 mph - N/A   Clear
1:53 AM 30.0 °F 23.2 °F 19.0 °F 64% 29.97 in 10.0 mi SW 6.9 mph - N/A   Clear
2:53 AM 28.9 °F 23.9 °F 19.0 °F 67% 29.99 in 10.0 mi West 4.6 mph - N/A   Clear
3:53 AM 30.0 °F 25.2 °F 18.0 °F 61% 30.00 in 10.0 mi SW 4.6 mph - N/A   Clear
4:53 AM 28.9 °F 23.9 °F 17.1 °F 61% 30.02 in 10.0 mi SW 4.6 mph - N/A   Clear
5:53 AM 23.0 °F 13.1 °F 16.0 °F 74% 30.06 in 10.0 mi SSW 9.2 mph - N/A   Clear
6:53 AM 21.0 °F 13.4 °F 14.0 °F 74% 30.08 in 10.0 mi SSW 5.8 mph - N/A   Clear
7:53 AM 17.1 °F 10.0 °F 12.0 °F 81% 30.10 in 10.0 mi WSW 4.6 mph - N/A   Clear
8:53 AM 19.9 °F 13.4 °F 14.0 °F 78% 30.15 in 10.0 mi WSW 4.6 mph - N/A   Clear
9:53 AM 28.0 °F 24.2 °F 18.0 °F 66% 30.12 in 10.0 mi WSW 3.5 mph - N/A   Clear
10:53 AM 37.9 °F - 19.0 °F 47% 30.08 in 10.0 mi Calm Calm - N/A   Clear
12:53 PM 42.1 °F - 21.0 °F 43% 29.97 in 10.0 mi Calm Calm - N/A   Clear
1:53 PM 44.1 °F 42.5 °F 24.1 °F 45% 29.95 in 10.0 mi NE 3.5 mph - N/A   Clear
2:53 PM 42.1 °F - 26.1 °F 53% 29.95 in 10.0 mi Calm Calm - N/A   Clear
4:53 PM 30.9 °F 25.2 °F 24.1 °F 76% 29.94 in 10.0 mi NE 5.8 mph - N/A   Clear
5:53 PM 32.0 °F 26.4 °F 24.1 °F 73% 29.94 in 10.0 mi South 5.8 mph - N/A   Clear
6:53 PM 36.0 °F 27.1 °F 23.0 °F 59% 29.90 in 10.0 mi South 13.8 mph - N/A   Clear
7:53 PM 35.1 °F 25.5 °F 19.9 °F 54% 29.90 in 10.0 mi SSW 15.0 mph - N/A   Clear
8:53 PM 28.9 °F 23.9 °F 18.0 °F 64% 29.89 in 10.0 mi WSW 4.6 mph - N/A   Clear
9:53 PM 28.0 °F 20.8 °F 17.1 °F 63% 29.87 in 10.0 mi WSW 6.9 mph - N/A   Clear
10:53 PM 23.0 °F - 16.0 °F 74% 29.82 in 10.0 mi Calm Calm - N/A   Clear
11:53 PM 24.1 °F - 16.0 °F 71% 29.79 in 10.0 mi Calm Calm - N/A   Clear